AU224 Weather Reports


time (UTC)temp
F
wind
direction
speed
knots
gust
knots
rain 1hr
in
rain 24hr
in
rain mn
in
humidity
%
barometer
mb
20260507194555 50 0 0.0 0.0 0.00 0.00 0.00 72 1012.6
20260507193044 50 0 0.0 0.0 0.00 0.00 0.00 71 1012.4
20260507191550 51 0 0.0 0.0 0.00 0.00 0.00 70 1012.4
20260507190055 51 0 0.0 2.6 0.00 0.00 0.00 69 1012.1
20260507184551 52 0 0.0 3.5 0.00 0.00 0.00 68 1011.9
20260507183051 52 16 0.0 0.0 0.00 0.00 0.00 68 1011.8
20260507181551 53 0 0.0 4.3 0.00 0.00 0.00 68 1011.6
20260507180050 53 0 0.0 8.7 0.00 0.00 0.00 68 1011.4
20260507174548 54 0 0.0 7.0 0.00 0.00 0.00 68 1011.3
20260507173124 55 0 0.9 7.8 0.00 0.00 0.00 65 1011.1
20260507171549 55 0 0.0 0.0 0.00 0.00 0.00 65 1011.2
20260507170044 56 0 0.0 4.3 0.00 0.00 0.00 63 1011.2
20260507164542 56 360 0.0 7.0 0.00 0.00 0.00 63 1011.0
20260507163046 58 0 0.0 5.2 0.00 0.00 0.00 60 1011.0
20260507161556 58 0 0.9 7.8 0.00 0.00 0.00 62 1010.9
20260507160053 58 0 0.9 11.3 0.00 0.00 0.00 60 1010.8
20260507154550 57 315 2.6 11.3 0.00 0.00 0.00 61 1010.9
20260507153048 58 296 0.0 9.6 0.00 0.00 0.00 61 1010.9
20260507151546 58 0 1.7 8.7 0.00 0.00 0.00 61 1010.7
20260507150045 58 327 0.9 10.4 0.00 0.00 0.00 60 1010.8
20260507144600 60 287 7.0 11.3 0.00 0.00 0.00 57 1010.6
20260507143100 59 315 2.6 10.4 0.00 0.00 0.00 60 1010.7
20260507141558 58 302 0.9 7.0 0.00 0.00 0.00 61 1010.8
20260507140050 58 324 2.6 9.6 0.00 0.00 0.00 62 1010.8
20260507134552 57 302 2.6 8.7 0.00 0.01 0.00 61 1010.9
20260507133111 58 282 1.7 10.4 0.00 0.01 0.00 61 1010.9
20260507131548 56 11 3.5 10.4 0.00 0.01 0.00 63 1010.9
20260507130057 56 360 1.7 11.3 0.00 0.01 0.00 66 1010.9
20260507124550 56 315 3.5 10.4 0.00 0.01 0.00 67 1010.9
20260507123047 53 311 4.3 12.2 0.00 0.01 0.00 68 1010.9
20260507121543 56 0 1.7 9.6 0.00 0.01 0.00 65 1010.6
20260507120040 56 332 3.5 11.3 0.00 0.01 0.00 64 1010.8
20260507114559 54 288 0.9 0.0 0.00 0.01 0.00 68 1010.9
20260507113043 55 300 6.1 8.7 0.00 0.01 0.00 67 1010.9
20260507111553 56 0 0.0 10.4 0.00 0.01 0.00 66 1010.8
20260507110054 54 298 5.2 8.7 0.00 0.01 0.00 69 1010.9
20260507104552 53 360 6.1 11.3 0.00 0.01 0.00 68 1011.0
20260507103100 55 288 4.3 10.4 0.00 0.01 0.00 68 1011.0
20260507101551 53 280 7.0 13.0 0.00 0.01 0.00 68 1011.0
20260507100050 55 304 10.4 0.0 0.00 0.01 0.00 72 1011.0
20260507094557 52 360 2.6 14.8 0.00 0.01 0.00 73 1011.0
20260507093047 51 286 0.9 10.4 0.00 0.01 0.00 75 1011.0
20260507091551 50 279 4.3 9.6 0.00 0.01 0.00 75 1010.9
20260507090047 50 244 0.9 10.4 0.00 0.01 0.00 76 1010.8
20260507084547 50 299 1.7 7.8 0.00 0.01 0.00 75 1010.6
20260507083047 50 239 4.3 10.4 0.00 0.01 0.00 73 1010.5
20260507081541 51 275 2.6 9.6 0.00 0.01 0.00 72 1010.4
20260507080048 50 360 5.2 0.0 0.00 0.01 0.00 72 1010.3
20260507074549 50 258 6.1 14.8 0.00 0.01 0.00 70 1010.0
20260507073102 49 161 7.0 13.9 0.00 0.01 0.00 71 1009.9
20260507071547 50 232 2.6 13.0 0.00 0.01 0.00 73 1009.8
20260507070054 50 0 1.7 10.4 0.00 0.01 0.00 74 1009.7
20260507064555 50 360 2.6 11.3 0.00 0.01 0.00 74 1009.7
20260507063051 49 264 3.5 11.3 0.00 0.01 0.00 76 1009.6
20260507061549 49 179 0.9 8.7 0.00 0.01 0.00 76 1009.4
20260507060054 49 290 2.6 8.7 0.00 0.01 0.00 75 1009.3
20260507054551 49 0 2.6 3.5 0.00 0.01 0.00 75 1009.2
20260507053039 48 244 0.9 7.8 0.00 0.01 0.00 75 1009.0
20260507051544 48 0 0.0 7.8 0.00 0.01 0.00 75 1008.8
20260507050046 47 0 2.6 7.8 0.00 0.01 0.00 77 1008.7
20260507044557 46 226 0.0 7.0 0.00 0.01 0.00 79 1008.5
20260507043042 46 0 0.0 6.1 0.00 0.01 0.00 79 1008.4
20260507041546 46 0 0.0 4.3 0.00 0.01 0.00 78 1008.2
20260507040049 46 0 0.0 3.5 0.00 0.01 0.00 78 1008.1
20260507034545 46 0 0.0 3.5 0.00 0.01 0.00 78 1007.9
20260507033058 46 0 0.0 3.5 0.00 0.01 0.00 79 1007.9
20260507031557 46 0 0.0 3.5 0.00 0.01 0.00 79 1007.7
20260507024604 46 0 0.0 3.5 0.00 0.01 0.00 80 1007.7
20260507023046 45 0 0.0 2.6 0.00 0.01 0.00 81 1007.6
20260507021551 45 0 0.0 0.9 0.00 0.01 0.00 79 1007.7
20260507020056 45 0 0.0 0.0 0.00 0.01 0.00 79 1007.6
20260507014554 45 0 0.0 2.6 0.00 0.01 0.00 78 1007.5
20260507013053 45 0 0.0 0.0 0.00 0.01 0.00 76 1007.5
20260507011553 45 0 0.0 1.7 0.00 0.01 0.00 77 1007.3
20260507010048 46 0 0.0 2.6 0.00 0.01 0.00 77 1007.5
20260507004550 46 0 0.0 2.6 0.00 0.01 0.00 76 1007.5
20260507003049 47 193 0.0 1.7 0.00 0.01 0.00 76 1007.5
20260507001541 47 0 0.0 1.7 0.00 0.01 0.00 75 1007.4
20260507000040 47 0 0.0 1.7 0.00 0.01 0.00 76 1007.5
20260506234551 47 0 0.0 2.6 0.00 0.01 0.00 76 1007.5
20260506233048 48 237 0.0 3.5 0.00 0.01 0.00 76 1007.5
20260506231552 48 0 0.0 5.2 0.00 0.01 0.00 76 1007.4
20260506230043 48 0 0.0 6.1 0.00 0.01 0.00 76 1007.2
20260506224549 48 0 0.0 3.5 0.00 0.01 0.00 76 1007.1
20260506223042 48 163 1.7 6.1 0.00 0.01 0.00 75 1007.2
20260506221549 48 0 0.0 7.8 0.00 0.01 0.00 75 1007.1
20260506220052 48 282 0.9 10.4 0.00 0.01 0.00 75 1007.1
20260506214546 48 0 0.9 5.2 0.00 0.01 0.01 76 1006.9
20260506213052 48 0 0.0 4.3 0.00 0.01 0.01 76 1006.9
20260506211547 49 360 0.0 7.0 0.00 0.01 0.01 76 1006.8
20260506210050 49 0 0.0 7.0 0.00 0.01 0.01 75 1006.8
20260506204548 49 285 0.0 8.7 0.00 0.02 0.01 75 1006.7
20260506203044 49 203 2.6 11.3 0.00 0.02 0.01 74 1006.5
20260506201544 48 214 1.7 11.3 0.00 0.02 0.01 74 1006.2
20260506200047 49 165 0.9 10.4 0.00 0.02 0.01 73 1006.1